{"data":{"norad_id":82311,"epoch":"2026-05-23T21:00:28.793664Z","epoch_age_seconds":172522,"freshness":"FRESH","line1":"1 82311U          26143.87533326  .00000637  00000+0  95450-3 0  9999","line2":"2 82311  99.4155 195.2440 0107323 257.1892 101.7237 13.54755864572277","mean_motion":13.54755864,"eccentricity":0.0107323,"inclination_deg":99.4155,"raan_deg":195.244,"arg_perigee_deg":257.1892,"mean_anomaly_deg":101.7237,"bstar":0.0009545,"rev_number":57227,"period_min":106.29221384201,"perigee_km":975.03928261454,"apogee_km":1134.5845580095,"semimajor_km":7432.948920312,"source":"CELESTRAK","updated_at":"2026-05-25T13:38:11.187050Z"}}